FIN4PE EFHK-EGLL

Flight info

Callsign FIN4PE
Flight time N/A
Altitude 40000
Route ADIVO Y365 POGOK DCT TIPIX DCT UPGAS DCT TIPAN DCT WECOW DCT BINBO DCT AKOKO N866 BUKUT P7 BARMI
Aircraft A333/H-SDE3GHIJ2J3J5M1RVWXY/LB2D1

Departure

Time 2026-04-26 10:43
Airport Helsinki Vantaa Airport (EFHK)

Arrival

Time N/A
Airport London Heathrow Airport (EGLL)
Time Latitude Longitude Altitude Speed Heading
2026-04-26 10:05 60.31507 24.95718 189 ft 0 kts 138°
2026-04-26 10:30 60.31513 24.95709 189 ft 2 kts 138°
2026-04-26 10:30 60.31524 24.95689 188 ft 2 kts 137°
2026-04-26 10:30 60.31533 24.95670 188 ft 0 kts 137°
2026-04-26 10:30 60.31541 24.95656 188 ft 2 kts 128°
2026-04-26 10:31 60.31548 24.95630 187 ft 2 kts 104°
2026-04-26 10:31 60.31551 24.95601 187 ft 2 kts 86°
2026-04-26 10:31 60.31548 24.95572 187 ft 2 kts 68°
2026-04-26 10:31 60.31541 24.95547 188 ft 1 kts 49°
2026-04-26 10:32 60.31539 24.95543 188 ft 0 kts 47°
2026-04-26 10:36 60.31558 24.95583 187 ft 10 kts 47°
2026-04-26 10:36 60.31616 24.95693 185 ft 5 kts 19°
2026-04-26 10:36 60.31674 24.95605 183 ft 16 kts 315°
2026-04-26 10:36 60.31779 24.95632 182 ft 17 kts 46°
2026-04-26 10:37 60.31853 24.95794 183 ft 14 kts 46°
2026-04-26 10:37 60.31911 24.95919 184 ft 10 kts 47°
2026-04-26 10:37 60.31982 24.96076 189 ft 22 kts 48°
2026-04-26 10:37 60.32120 24.96382 192 ft 35 kts 46°
2026-04-26 10:38 60.32254 24.96672 184 ft 16 kts 46°
2026-04-26 10:38 60.32278 24.96860 182 ft 15 kts 135°
2026-04-26 10:38 60.32153 24.97003 183 ft 28 kts 153°
2026-04-26 10:38 60.31952 24.97213 191 ft 37 kts 152°
2026-04-26 10:39 60.31702 24.97470 196 ft 36 kts 153°
2026-04-26 10:39 60.31473 24.97705 192 ft 38 kts 152°
2026-04-26 10:39 60.31233 24.97953 190 ft 39 kts 153°
2026-04-26 10:39 60.30997 24.98187 186 ft 36 kts 156°
2026-04-26 10:40 60.30763 24.98390 185 ft 37 kts 157°
2026-04-26 10:40 60.30667 24.98596 181 ft 14 kts 81°
2026-04-26 10:40 60.30717 24.98757 180 ft 11 kts 32°
2026-04-26 10:40 60.30790 24.98742 180 ft 10 kts 332°
2026-04-26 10:41 60.30799 24.98732 180 ft 0 kts 333°
2026-04-26 10:42 60.30802 24.98729 180 ft 4 kts 333°
2026-04-26 10:42 60.31022 24.98505 183 ft 71 kts 333°
2026-04-26 10:42 60.31645 24.97865 197 ft 129 kts 333°
2026-04-26 10:42 60.32490 24.97048 772 ft 137 kts 336°
2026-04-26 10:43 60.33287 24.96156 1590 ft 137 kts 324°
2026-04-26 10:43 60.33731 24.94391 2302 ft 159 kts 287°
2026-04-26 10:43 60.33762 24.92180 3151 ft 159 kts 283°
2026-04-26 10:43 60.33775 24.90059 3983 ft 151 kts 285°
2026-04-26 10:44 60.33794 24.87974 4470 ft 151 kts 285°
2026-04-26 10:44 60.33815 24.85860 4947 ft 153 kts 286°
2026-04-26 10:44 60.33812 24.83718 5426 ft 157 kts 279°
2026-04-26 10:44 60.33582 24.81513 5890 ft 168 kts 266°
2026-04-26 10:45 60.33157 24.79277 6360 ft 173 kts 260°
2026-04-26 10:45 60.32641 24.77059 6838 ft 176 kts 257°
2026-04-26 10:45 60.32084 24.74882 7298 ft 178 kts 255°
2026-04-26 10:45 60.31492 24.72659 7744 ft 181 kts 254°
2026-04-26 10:46 60.30891 24.70444 8186 ft 183 kts 253°
2026-04-26 10:46 60.30283 24.68226 8648 ft 183 kts 252°
2026-04-26 10:46 60.29748 24.65926 9066 ft 175 kts 274°
2026-04-26 10:46 60.29728 24.63613 9531 ft 165 kts 284°
2026-04-26 10:47 60.29739 24.61278 9972 ft 168 kts 282°
2026-04-26 10:47 60.29746 24.58942 10404 ft 169 kts 282°
2026-04-26 10:47 60.29752 24.56588 10848 ft 170 kts 282°
2026-04-26 10:47 60.29758 24.54180 11247 ft 173 kts 281°
2026-04-26 10:48 60.29762 24.51758 11693 ft 173 kts 280°
2026-04-26 10:48 60.29767 24.49339 12109 ft 175 kts 280°
2026-04-26 10:48 60.29771 24.46891 12503 ft 177 kts 279°
2026-04-26 10:48 60.29774 24.44430 12898 ft 178 kts 279°
2026-04-26 10:49 60.29778 24.41933 13274 ft 180 kts 278°
2026-04-26 10:49 60.29780 24.39416 13669 ft 181 kts 278°
2026-04-26 10:49 60.29782 24.36879 14051 ft 183 kts 277°
2026-04-26 10:49 60.29783 24.34325 14428 ft 184 kts 276°
2026-04-26 10:50 60.29784 24.31749 14795 ft 186 kts 276°
2026-04-26 10:50 60.29784 24.30002 15059 ft 186 kts 276°
2026-04-26 10:50 60.29785 24.26518 15559 ft 188 kts 276°
2026-04-26 10:50 60.29784 24.23916 15935 ft 189 kts 275°
2026-04-26 10:51 60.29783 24.21282 16271 ft 192 kts 275°
2026-04-26 10:51 60.29782 24.15580 16615 ft 215 kts 274°
2026-04-26 10:51 60.29778 24.12515 16796 ft 226 kts 274°
2026-04-26 10:52 60.29774 24.09269 16977 ft 236 kts 274°
2026-04-26 10:52 60.29769 24.05901 17145 ft 247 kts 274°
2026-04-26 10:52 60.29763 24.02346 17225 ft 262 kts 274°
2026-04-26 10:52 60.29744 23.98583 17332 ft 278 kts 269°
2026-04-26 10:53 60.29392 23.94664 17511 ft 292 kts 261°
2026-04-26 10:53 60.28952 23.90642 17682 ft 303 kts 261°
2026-04-26 10:53 60.28493 23.86408 17843 ft 314 kts 261°
2026-04-26 10:54 60.27533 23.77593 18162 ft 332 kts 261°
2026-04-26 10:54 60.27033 23.73020 18313 ft 340 kts 261°
2026-04-26 10:54 60.26522 23.68358 18468 ft 346 kts 261°
2026-04-26 10:54 60.26000 23.63612 18635 ft 352 kts 261°
2026-04-26 10:55 60.25463 23.58754 18895 ft 354 kts 261°
2026-04-26 10:55 60.24930 23.53940 19180 ft 355 kts 261°
2026-04-26 10:55 60.24390 23.49085 19449 ft 356 kts 261°
2026-04-26 10:55 60.23849 23.44245 19701 ft 358 kts 261°
2026-04-26 10:56 60.23308 23.39416 19936 ft 360 kts 261°
2026-04-26 10:56 60.22759 23.34520 20172 ft 361 kts 261°
2026-04-26 10:56 60.22198 23.29544 20389 ft 363 kts 261°
2026-04-26 10:56 60.21646 23.24666 20591 ft 364 kts 261°
2026-04-26 10:57 60.21084 23.19720 20804 ft 365 kts 261°
2026-04-26 10:57 60.20512 23.14700 21012 ft 367 kts 262°
2026-04-26 10:57 60.19947 23.09761 21231 ft 367 kts 262°
2026-04-26 10:57 60.19371 23.04751 21420 ft 368 kts 262°
2026-04-26 10:58 60.18795 22.99739 21621 ft 369 kts 262°
2026-04-26 10:58 60.18220 22.94774 21774 ft 371 kts 262°
2026-04-26 10:58 60.17631 22.89696 21959 ft 372 kts 263°
2026-04-26 10:58 60.17049 22.84705 22104 ft 373 kts 263°
2026-04-26 10:59 60.16457 22.79643 22271 ft 374 kts 263°
2026-04-26 10:59 60.15860 22.74546 22447 ft 375 kts 264°
2026-04-26 10:59 60.15260 22.69460 22610 ft 375 kts 264°
2026-04-26 10:59 60.14656 22.64339 22857 ft 382 kts 264°
2026-04-26 11:00 60.14045 22.59200 23509 ft 381 kts 265°